This demonstration page uses our WeatherBlox Daily Observations layout. Learn more.

38.89511, -77.03637

Hourly Observations for September 11, 2016

Temp ( °F °C ) Dew Point ( °F °C ) Humidity (%) Winds ( mph kmh ) Pressure ( in mb ) Visibility ( mi km ) Precip ( " mm )
12:52 am 00:52 Mostly Cloudy 81 27.2 75 23.9 82 82 SSW 13 20 29.92 1013 10 16.0934 0 0
1:52 am 01:52 Mostly Cloudy 81 27.2 74 23.3 79 79 S 13 20 29.91 1013 10 16.0934 0 0
2:52 am 02:52 Cloudy 81 27.2 74 23.3 79 79 SSW 12 19 29.9 1012 10 16.0934 0 0
3:52 am 03:52 Cloudy 81 27.2 74 23.3 79 79 SSW 12 19 29.89 1012 10 16.0934 0 0
4:52 am 04:52 Mostly Cloudy 80 26.7 74 23.3 82 82 SW 8 13 29.9 1013 10 16.0934 0 0
5:52 am 05:52 Mostly Cloudy 79 26.1 73 22.8 82 82 W 5 7 29.93 1014 10 16.0934 0 0
6:52 am 06:52 Mostly Cloudy 79 26.1 73 22.8 82 82 WNW 8 13 29.96 1015 10 16.0934 0 0
7:52 am 07:52 Mostly Cloudy 81 27.2 65 18.3 58 58 NW 14 22 29.99 1016 10 16.0934 0 0
8:52 am 08:52 Mostly Cloudy 80 26.7 65 18.3 60 60 NW 14 22 30.02 1017 10 16.0934 0 0
9:52 am 09:52 Mostly Cloudy 83 28.3 61 16.1 48 48 NNW 16 26 30.05 1018 10 16.0934 0 0
10:52 am 10:52 Mostly Cloudy 80 26.7 59 15 49 49 NW 18 30 30.08 1019 10 16.0934 0 0
11:52 am 11:52 Mostly Cloudy 84 28.9 57 13.9 40 40 NNW 20 31 30.08 1019 10 16.0934 0 0
12:52 pm 12:52 Mostly Cloudy 85 29.4 55 12.8 36 36 NNW 18 30 30.08 1019 10 16.0934 0 0
1:52 pm 13:52 Mostly Cloudy 86 30 57 13.9 37 37 NNW 13 20 30.07 1018 10 16.0934 0 0
2:52 pm 14:52 Mostly Cloudy 85 29.4 54 12.2 35 35 NNW 12 19 30.06 1018 10 16.0934 0 0
3:52 pm 15:52 Mostly Cloudy 85 29.4 54 12.2 35 35 NNW 9 15 30.07 1018 10 16.0934 0 0
4:52 pm 16:52 Mostly Cloudy 84 28.9 53 11.7 34 34 NNW 13 20 30.07 1018 10 16.0934 0 0
5:52 pm 17:52 Mostly Cloudy 84 28.9 54 12.2 36 36 NW 12 19 30.07 1018 10 16.0934 0 0
6:52 pm 18:52 Mostly Cloudy 81 27.2 53 11.7 38 38 NW 12 19 30.09 1019 10 16.0934 0 0
7:52 pm 19:52 Mostly Cloudy 78 25.6 53 11.7 42 42 N 6 9 30.09 1019 10 16.0934 0 0
8:52 pm 20:52 Mostly Cloudy 78 25.6 54 12.2 43 43 NNW 6 9 30.11 1020 10 16.0934 0 0
9:52 pm 21:52 Mostly Cloudy 76 24.4 56 13.3 50 50 NW 6 9 30.13 1020 10 16.0934 0 0
10:52 pm 22:52 Mostly Cloudy 74 23.3 59 15 60 60 N 5 7 30.14 1021 10 16.0934 0 0
11:52 pm 23:52 Mostly Cloudy 74 23.3 60 15.6 62 62 N 7 11 30.15 1021 10 16.0934 0 0

Powered by AerisWeather